User: anonymous   Login
Location: Unspecified
(0.0000°N, 0.0000°E)
Time: 22:18:03
(UTC+00:00)
Language:

TOMORROW-S1 - Orbit

View from above orbital plane
View from above orbital plane
View from above satellite
View from above satellite

Ground track
Ground track

The orbit is defined by the following mean orbital elements,

1 60479U          26145.15318116 +.00000000 +00000-0 +21869-3 0 00002
2 60479  97.3749 225.7044 0001972  11.6559 348.4728 15.32344268    01
Epoch (UTC): 25 May 2026 03:40:34
Eccentricity: 0.0001972
inclination: 97.3749°
perigee height: 467 km
apogee height: 470 km
right ascension of ascending node: 225.7044°
argument of perigee: 11.6559°
revolutions per day: 15.32344268
mean anomaly at epoch: 348.4728°

The dashed part of the orbit path shows where the satellite is in the earth's shadow,  

DLR